TA2VIP-13 Weather Reports


time (UTC)temp
C
wind
direction
speed
KPH
gust
KPH
rain 1hr
cm
rain 24hr
cm
rain mn
cm
humidity
%
barometer
mb
20260507135341 18 290 11.3 11.3 0.00 0.00 0.00 50 1015.0
20260507134341 18 290 11.3 11.3 0.00 0.00 0.00 50 1015.0
20260507133341 18 290 11.3 11.3 0.00 0.00 0.00 50 1015.0
20260507132341 17 310 9.7 9.7 0.00 0.00 0.00 50 1015.0
20260507131341 17 310 9.7 9.7 0.00 0.00 0.00 50 1015.0
20260507130341 17 310 9.7 9.7 0.00 0.00 0.00 50 1015.0
20260507125341 17 0 0.0 0.0 0.00 0.00 0.00 50 1015.0
20260507124341 17 0 0.0 0.0 0.00 0.00 0.00 50 1015.0
20260507123341 17 0 0.0 0.0 0.00 0.00 0.00 50 1015.0
20260507122341 17 230 12.9 12.9 0.00 0.00 0.00 50 1015.0
20260507121341 17 230 12.9 12.9 0.00 0.00 0.00 50 1015.0
20260507120341 17 230 12.9 12.9 0.00 0.00 0.00 50 1015.0
20260507115342 16 180 6.4 6.4 0.00 0.00 0.00 50 1015.0
20260507114342 16 180 6.4 6.4 0.00 0.00 0.00 50 1015.0
20260507113312 16 180 6.4 6.4 0.00 0.00 0.00 50 1015.0
20260507112312 16 0 0.0 0.0 0.00 0.00 0.00 50 1015.0
20260507111312 16 0 0.0 0.0 0.00 0.00 0.00 50 1015.0
20260507110312 16 0 0.0 0.0 0.00 0.00 0.00 50 1015.0
20260507105312 16 0 0.0 0.0 0.00 0.00 0.00 50 1015.0
20260507104312 16 0 0.0 0.0 0.00 0.00 0.00 50 1015.0
20260507103312 16 0 0.0 0.0 0.00 0.00 0.00 50 1015.0
20260507102312 15 270 6.4 6.4 0.00 0.00 0.00 50 1015.0
20260507101312 15 270 6.4 6.4 0.00 0.00 0.00 50 1015.0
20260507100312 15 270 6.4 6.4 0.00 0.00 0.00 50 1015.0
20260507095312 15 270 8.0 8.0 0.00 0.00 0.00 50 1015.0
20260507094312 15 270 8.0 8.0 0.00 0.00 0.00 50 1015.0
20260507093312 15 270 8.0 8.0 0.00 0.00 0.00 50 1015.0
20260507092312 15 270 11.3 11.3 0.00 0.00 0.00 50 1015.0
20260507091312 15 270 11.3 11.3 0.00 0.00 0.00 50 1015.0
20260507090312 15 270 11.3 11.3 0.00 0.00 0.00 50 1015.0
20260507085312 15 240 12.9 12.9 0.00 0.00 0.00 50 1015.0
20260507084312 15 240 12.9 12.9 0.00 0.00 0.00 50 1015.0
20260507083312 15 240 12.9 12.9 0.00 0.00 0.00 50 1015.0
20260507082312 13 230 9.7 9.7 0.00 0.00 0.00 50 1015.0
20260507081312 13 230 9.7 9.7 0.00 0.00 0.00 50 1015.0
20260507080312 13 230 9.7 9.7 0.00 0.00 0.00 50 1015.0
20260507075312 13 0 0.0 0.0 0.00 0.00 0.00 50 1015.0
20260507074312 13 0 0.0 0.0 0.00 0.00 0.00 50 1015.0
20260507073312 13 0 0.0 0.0 0.00 0.00 0.00 50 1015.0
20260507072242 11 0 0.0 0.0 0.00 0.00 0.00 50 1015.0
20260507071242 11 0 0.0 0.0 0.00 0.00 0.00 50 1015.0
20260507070242 11 0 0.0 0.0 0.00 0.00 0.00 50 1015.0
20260507065242 10 0 0.0 0.0 0.00 0.00 0.00 50 1015.0
20260507064242 10 0 0.0 0.0 0.00 0.00 0.00 50 1015.0
20260507063242 10 0 0.0 0.0 0.00 0.00 0.00 50 1015.0
20260507062242 10 0 0.0 0.0 0.00 0.00 0.00 50 1015.0
20260507061242 10 0 0.0 0.0 0.00 0.00 0.00 50 1015.0
20260507060242 10 0 0.0 0.0 0.00 0.00 0.00 50 1015.0
20260507055242 6 0 0.0 0.0 0.00 0.00 0.00 50 1015.0
20260507054242 6 0 0.0 0.0 0.00 0.00 0.00 50 1015.0
20260507053242 6 0 0.0 0.0 0.00 0.00 0.00 50 1015.0
20260507052242 5 0 0.0 0.0 0.00 0.00 0.00 50 1015.0
20260507051242 5 0 0.0 0.0 0.00 0.00 0.00 50 1015.0
20260507050242 5 0 0.0 0.0 0.00 0.00 0.00 50 1015.0
20260507045243 3 40 4.8 4.8 0.00 0.00 0.00 50 1015.0
20260507044242 3 40 4.8 4.8 0.00 0.00 0.00 50 1015.0
20260507043242 3 40 4.8 4.8 0.00 0.00 0.00 50 1015.0
20260507042242 1 50 4.8 4.8 0.00 0.00 0.00 50 1015.0
20260507041242 1 50 4.8 4.8 0.00 0.00 0.00 50 1015.0
20260507040242 1 50 4.8 4.8 0.00 0.00 0.00 50 1015.0
20260507035242 1 0 0.0 0.0 0.00 0.00 0.00 50 1015.0
20260507034242 1 0 0.0 0.0 0.00 0.00 0.00 50 1015.0
20260507033242 1 0 0.0 0.0 0.00 0.00 0.00 50 1015.0
20260507032242 0 0 0.0 0.0 0.00 0.00 0.00 50 1015.0
20260507031242 0 0 0.0 0.0 0.00 0.00 0.00 50 1015.0
20260507030212 0 0 0.0 0.0 0.00 0.00 0.00 50 1015.0
20260507025212 1 0 0.0 0.0 0.00 0.00 0.00 50 1015.0
20260507024212 1 0 0.0 0.0 0.00 0.00 0.00 50 1015.0
20260507023212 1 0 0.0 0.0 0.00 0.00 0.00 50 1015.0
20260507022212 0 50 8.0 8.0 0.00 0.00 0.00 50 1015.0
20260507021212 0 50 8.0 8.0 0.00 0.00 0.00 50 1015.0
20260507020212 0 50 8.0 8.0 0.00 0.00 0.00 50 1015.0
20260507015212 1 30 4.8 4.8 0.00 0.00 0.00 50 1015.0
20260507014212 1 30 4.8 4.8 0.00 0.00 0.00 50 1015.0
20260507013212 1 30 4.8 4.8 0.00 0.00 0.00 50 1015.0
20260507012212 1 0 0.0 0.0 0.00 0.00 0.00 50 1015.0
20260507011212 1 0 0.0 0.0 0.00 0.00 0.00 50 1015.0
20260507010212 1 0 0.0 0.0 0.00 0.00 0.00 50 1015.0
20260507005212 2 0 0.0 0.0 0.00 0.00 0.00 50 1015.0
20260507003212 2 0 0.0 0.0 0.00 0.00 0.00 50 1015.0
20260507002212 1 0 0.0 0.0 0.00 0.00 0.00 50 1015.0
20260507001212 1 0 0.0 0.0 0.00 0.00 0.00 50 1015.0
20260507000212 1 0 0.0 0.0 0.00 0.00 0.00 50 1015.0
20260506235212 3 190 3.2 3.2 0.00 0.00 0.00 50 1015.0
20260506234212 3 190 3.2 3.2 0.00 0.00 0.00 50 1015.0
20260506233212 3 190 3.2 3.2 0.00 0.00 0.00 50 1015.0
20260506232213 5 0 0.0 0.0 0.00 0.00 0.00 50 1015.0
20260506231213 5 0 0.0 0.0 0.00 0.00 0.00 50 1015.0
20260506230212 5 0 0.0 0.0 0.00 0.00 0.00 50 1015.0
20260506225213 5 0 0.0 0.0 0.00 0.00 0.00 50 1015.0
20260506224213 5 0 0.0 0.0 0.00 0.00 0.00 50 1015.0
20260506223143 5 0 0.0 0.0 0.00 0.00 0.00 50 1015.0
20260506222143 3 310 4.8 4.8 0.00 0.00 0.00 50 1015.0
20260506221143 3 310 4.8 4.8 0.00 0.00 0.00 50 1015.0
20260506220143 3 310 4.8 4.8 0.00 0.00 0.00 50 1015.0
20260506215143 5 20 6.4 6.4 0.00 0.00 0.00 50 1015.0
20260506214143 5 20 6.4 6.4 0.00 0.00 0.00 50 1015.0
20260506213143 5 20 6.4 6.4 0.00 0.00 0.00 50 1015.0
20260506212143 5 40 8.0 8.0 0.00 0.00 0.00 50 1015.0
20260506211143 5 40 8.0 8.0 0.00 0.00 0.00 50 1015.0
20260506210143 5 40 8.0 8.0 0.00 0.00 0.00 50 1015.0
20260506205143 5 70 6.4 6.4 0.00 0.00 0.00 50 1015.0
20260506204143 5 70 6.4 6.4 0.00 0.00 0.00 50 1015.0
20260506203143 5 70 6.4 6.4 0.00 0.00 0.00 50 1015.0
20260506202143 6 0 0.0 0.0 0.00 0.00 0.00 50 1015.0
20260506201143 6 0 0.0 0.0 0.00 0.00 0.00 50 1015.0
20260506200143 6 0 0.0 0.0 0.00 0.00 0.00 50 1015.0
20260506195213 3 0 0.0 0.0 0.00 0.00 0.00 50 1015.0